| time (UTC) | temp F | wind direction | speed knots | gust knots | rain 1hr in | rain 24hr in | rain mn in | humidity % | barometer mb |
| 20260505214328 | 50 | 331 | 1.7 | 2.6 | 0.00 | 0.39 | 0.39 | 89 | 1010.4 |
| 20260505213825 | 50 | 60 | 1.7 | 5.2 | 0.00 | 0.39 | 0.39 | 89 | 1010.6 |
| 20260505213323 | 50 | 291 | 2.6 | 7.0 | 0.00 | 0.39 | 0.39 | 89 | 1010.1 |
| 20260505212818 | 51 | 358 | 0.9 | 3.5 | 0.00 | 0.39 | 0.39 | 90 | 1010.2 |
| 20260505212316 | 51 | 31 | 0.9 | 1.7 | 0.00 | 0.39 | 0.39 | 90 | 1010.5 |
| 20260505211812 | 51 | 42 | 1.7 | 2.6 | 0.00 | 0.39 | 0.39 | 91 | 1010.4 |
| 20260505211310 | 51 | 22 | 1.7 | 1.7 | 0.00 | 0.39 | 0.39 | 92 | 1010.0 |
| 20260505210806 | 51 | 311 | 1.7 | 3.5 | 0.00 | 0.39 | 0.39 | 92 | 1010.2 |
| 20260505210303 | 51 | 28 | 3.5 | 3.5 | 0.00 | 0.39 | 0.39 | 91 | 1010.4 |
| 20260505205800 | 52 | 29 | 1.7 | 3.5 | 0.00 | 0.39 | 0.39 | 91 | 1010.3 |
| 20260505205258 | 52 | 354 | 0.9 | 0.9 | 0.00 | 0.39 | 0.39 | 92 | 1009.8 |
| 20260505204754 | 52 | 290 | 1.7 | 2.6 | 0.00 | 0.39 | 0.39 | 91 | 1010.0 |
| 20260505204253 | 52 | 288 | 2.6 | 3.5 | 0.00 | 0.39 | 0.39 | 90 | 1010.0 |
| 20260505203749 | 52 | 320 | 0.0 | 1.7 | 0.00 | 0.39 | 0.39 | 91 | 1010.2 |
| 20260505203246 | 52 | 41 | 2.6 | 5.2 | 0.00 | 0.39 | 0.39 | 91 | 1010.2 |
| 20260505202742 | 52 | 342 | 1.7 | 2.6 | 0.00 | 0.39 | 0.39 | 91 | 1010.6 |
| 20260505202238 | 53 | 306 | 1.7 | 2.6 | 0.00 | 0.39 | 0.39 | 90 | 1010.2 |
| 20260505201735 | 53 | 0 | 0.9 | 1.7 | 0.00 | 0.39 | 0.39 | 90 | 1010.2 |
| 20260505201233 | 53 | 103 | 3.5 | 7.0 | 0.00 | 0.39 | 0.39 | 89 | 1010.1 |
| 20260505200731 | 53 | 29 | 1.7 | 3.5 | 0.00 | 0.39 | 0.39 | 88 | 1009.7 |
| 20260505200228 | 53 | 63 | 3.5 | 6.1 | 0.00 | 0.39 | 0.39 | 89 | 1009.8 |
| 20260505195723 | 53 | 36 | 1.7 | 3.5 | 0.00 | 0.39 | 0.39 | 90 | 1009.7 |
| 20260505195221 | 53 | 296 | 2.6 | 3.5 | 0.00 | 0.39 | 0.39 | 90 | 1009.7 |
| 20260505194718 | 53 | 333 | 0.9 | 2.6 | 0.00 | 0.39 | 0.39 | 89 | 1009.8 |
| 20260505194214 | 53 | 328 | 1.7 | 5.2 | 0.00 | 0.39 | 0.39 | 90 | 1009.5 |
| 20260505193710 | 53 | 337 | 1.7 | 3.5 | 0.00 | 0.39 | 0.39 | 90 | 1009.7 |
| 20260505193207 | 53 | 30 | 1.7 | 2.6 | 0.00 | 0.39 | 0.39 | 90 | 1009.8 |
| 20260505192706 | 53 | 323 | 1.7 | 3.5 | 0.00 | 0.39 | 0.39 | 90 | 1010.2 |
| 20260505192204 | 54 | 328 | 2.6 | 5.2 | 0.00 | 0.39 | 0.39 | 90 | 1010.1 |
| 20260505191702 | 54 | 325 | 0.9 | 1.7 | 0.00 | 0.39 | 0.39 | 91 | 1010.0 |
| 20260505191159 | 54 | 331 | 2.6 | 3.5 | 0.00 | 0.39 | 0.39 | 91 | 1009.8 |
| 20260505190655 | 54 | 337 | 2.6 | 3.5 | 0.00 | 0.39 | 0.39 | 92 | 1010.1 |
| 20260505190155 | 54 | 309 | 2.6 | 2.6 | 0.00 | 0.39 | 0.39 | 92 | 1009.7 |
| 20260505185652 | 54 | 41 | 1.7 | 1.7 | 0.00 | 0.39 | 0.39 | 93 | 1009.5 |
| 20260505185148 | 54 | 4 | 0.9 | 2.6 | 0.00 | 0.39 | 0.39 | 92 | 1009.3 |
| 20260505184645 | 54 | 29 | 1.7 | 1.7 | 0.00 | 0.39 | 0.39 | 92 | 1009.4 |
| 20260505184142 | 54 | 295 | 1.7 | 2.6 | 0.00 | 0.39 | 0.39 | 92 | 1009.7 |
| 20260505183639 | 54 | 20 | 0.0 | 1.7 | 0.00 | 0.39 | 0.39 | 92 | 1009.9 |
| 20260505183137 | 54 | 47 | 1.7 | 2.6 | 0.00 | 0.39 | 0.39 | 92 | 1009.8 |
| 20260505182632 | 54 | 35 | 0.9 | 3.5 | 0.00 | 0.39 | 0.39 | 91 | 1009.7 |
| 20260505182129 | 55 | 312 | 1.7 | 5.2 | 0.00 | 0.39 | 0.39 | 89 | 1009.7 |
| 20260505181626 | 56 | 45 | 0.0 | 0.9 | 0.00 | 0.39 | 0.39 | 89 | 1009.6 |
| 20260505181123 | 55 | 53 | 0.9 | 1.7 | 0.00 | 0.39 | 0.39 | 88 | 1009.6 |
| 20260505180619 | 56 | 40 | 0.9 | 3.5 | 0.00 | 0.39 | 0.39 | 86 | 1009.7 |
| 20260505180117 | 56 | 17 | 1.7 | 5.2 | 0.00 | 0.39 | 0.39 | 86 | 1009.6 |
| 20260505175613 | 56 | 338 | 1.7 | 3.5 | 0.00 | 0.39 | 0.39 | 84 | 1009.5 |
| 20260505175109 | 56 | 312 | 1.7 | 2.6 | 0.00 | 0.39 | 0.39 | 85 | 1009.5 |
| 20260505174606 | 57 | 290 | 2.6 | 2.6 | 0.00 | 0.39 | 0.39 | 85 | 1009.5 |
| 20260505174102 | 57 | 315 | 1.7 | 2.6 | 0.00 | 0.39 | 0.39 | 84 | 1009.3 |
| 20260505173559 | 58 | 21 | 1.7 | 2.6 | 0.00 | 0.39 | 0.39 | 84 | 1009.4 |
| 20260505173056 | 58 | 313 | 1.7 | 3.5 | 0.00 | 0.39 | 0.39 | 84 | 1009.1 |
| 20260505172553 | 58 | 28 | 1.7 | 3.5 | 0.00 | 0.39 | 0.39 | 85 | 1009.3 |
| 20260505172050 | 58 | 28 | 3.5 | 6.1 | 0.00 | 0.39 | 0.39 | 84 | 1009.0 |
| 20260505171545 | 58 | 304 | 1.7 | 3.5 | 0.00 | 0.39 | 0.39 | 85 | 1008.9 |
| 20260505171042 | 59 | 56 | 0.0 | 0.0 | 0.00 | 0.39 | 0.39 | 85 | 1008.9 |
| 20260505170533 | 59 | 310 | 1.7 | 2.6 | 0.00 | 0.39 | 0.39 | 85 | 1008.8 |
| 20260505170030 | 59 | 16 | 0.9 | 2.6 | 0.00 | 0.39 | 0.39 | 85 | 1008.8 |
| 20260505165525 | 59 | 39 | 0.9 | 2.6 | 0.00 | 0.39 | 0.39 | 86 | 1008.7 |
| 20260505165021 | 59 | 22 | 0.9 | 2.6 | 0.00 | 0.39 | 0.39 | 85 | 1008.8 |
| 20260505164517 | 60 | 15 | 1.7 | 1.7 | 0.00 | 0.39 | 0.39 | 87 | 1008.8 |
| 20260505164015 | 60 | 1 | 0.9 | 0.9 | 0.00 | 0.39 | 0.39 | 87 | 1008.8 |
| 20260505163514 | 60 | 29 | 0.0 | 6.1 | 0.00 | 0.39 | 0.39 | 87 | 1008.5 |
| 20260505163010 | 60 | 77 | 1.7 | 2.6 | 0.00 | 0.39 | 0.39 | 88 | 1008.7 |
| 20260505162503 | 60 | 320 | 1.7 | 1.7 | 0.00 | 0.39 | 0.39 | 89 | 1008.8 |
| 20260505162000 | 60 | 14 | 0.0 | 0.9 | 0.00 | 0.39 | 0.39 | 90 | 1008.8 |
| 20260505161456 | 60 | 38 | 1.7 | 1.7 | 0.00 | 0.39 | 0.39 | 89 | 1008.9 |
| 20260505160954 | 60 | 323 | 0.9 | 2.6 | 0.00 | 0.39 | 0.39 | 89 | 1008.9 |
| 20260505160452 | 60 | 307 | 1.7 | 2.6 | 0.00 | 0.39 | 0.39 | 90 | 1009.0 |
| 20260505152928 | 59 | 314 | 1.7 | 2.6 | 0.00 | 0.39 | 0.39 | 91 | 1008.3 |
| 20260505152420 | 59 | 315 | 0.9 | 2.6 | 0.00 | 0.39 | 0.39 | 92 | 1008.3 |
| 20260505151919 | 59 | 304 | 0.9 | 2.6 | 0.00 | 0.39 | 0.39 | 92 | 1008.1 |
| 20260505151415 | 60 | 326 | 1.7 | 1.7 | 0.00 | 0.39 | 0.39 | 92 | 1008.2 |
| 20260505150913 | 60 | 327 | 0.9 | 1.7 | 0.00 | 0.39 | 0.39 | 92 | 1008.1 |
| 20260505150410 | 60 | 39 | 0.9 | 1.7 | 0.00 | 0.39 | 0.39 | 93 | 1008.0 |
| 20260505140335 | 62 | 26 | 0.0 | 0.0 | 0.00 | 0.39 | 0.39 | 93 | 1008.3 |
| 20260505130258 | 60 | 343 | 0.0 | 0.0 | 0.00 | 0.39 | 0.39 | 97 | 1008.2 |
| 20260505124748 | 60 | 297 | 0.0 | 0.0 | 0.00 | 0.39 | 0.39 | 98 | 1008.0 |
| 20260505124245 | 60 | 297 | 0.0 | 0.0 | 0.00 | 0.39 | 0.39 | 98 | 1008.2 |
| 20260505123741 | 59 | 297 | 0.0 | 0.0 | 0.00 | 0.39 | 0.39 | 98 | 1007.8 |
| 20260505123238 | 59 | 297 | 0.0 | 0.0 | 0.00 | 0.39 | 0.39 | 98 | 1007.9 |
| 20260505122734 | 59 | 297 | 0.0 | 0.0 | 0.00 | 0.39 | 0.39 | 98 | 1007.7 |
| 20260505122232 | 59 | 297 | 0.0 | 0.0 | 0.00 | 0.39 | 0.39 | 98 | 1008.1 |
| 20260505121728 | 59 | 297 | 0.0 | 0.0 | 0.00 | 0.39 | 0.39 | 98 | 1007.9 |
| 20260505121225 | 59 | 297 | 0.0 | 0.0 | 0.00 | 0.39 | 0.39 | 98 | 1007.9 |
| 20260505120721 | 59 | 297 | 0.0 | 0.0 | 0.00 | 0.39 | 0.39 | 98 | 1007.6 |
| 20260505120217 | 59 | 297 | 0.0 | 0.0 | 0.00 | 0.39 | 0.39 | 98 | 1007.8 |
| 20260505115715 | 59 | 297 | 0.0 | 0.0 | 0.00 | 0.39 | 0.39 | 98 | 1007.7 |
| 20260505115214 | 59 | 297 | 0.0 | 0.0 | 0.00 | 0.39 | 0.39 | 98 | 1007.6 |
| 20260505114711 | 59 | 297 | 0.0 | 0.0 | 0.00 | 0.39 | 0.39 | 97 | 1007.8 |
| 20260505114207 | 59 | 297 | 0.0 | 0.0 | 0.00 | 0.39 | 0.39 | 97 | 1007.7 |
| 20260505113703 | 59 | 297 | 0.0 | 0.0 | 0.00 | 0.39 | 0.39 | 97 | 1007.6 |
| 20260505113200 | 59 | 295 | 0.9 | 0.9 | 0.00 | 0.39 | 0.39 | 98 | 1007.6 |
| 20260505112656 | 59 | 306 | 0.0 | 0.0 | 0.00 | 0.39 | 0.39 | 98 | 1007.5 |
| 20260505112155 | 60 | 306 | 0.0 | 0.0 | 0.00 | 0.39 | 0.39 | 98 | 1007.3 |
| 20260505111654 | 60 | 305 | 0.0 | 0.0 | 0.00 | 0.39 | 0.39 | 98 | 1007.1 |
| 20260505111150 | 60 | 274 | 0.0 | 0.0 | 0.00 | 0.39 | 0.39 | 98 | 1007.2 |
| 20260505110646 | 60 | 234 | 0.0 | 0.0 | 0.00 | 0.39 | 0.39 | 98 | 1007.4 |
| 20260505110144 | 60 | 315 | 1.7 | 2.6 | 0.00 | 0.39 | 0.39 | 98 | 1007.3 |
| 20260505102120 | 60 | 246 | 0.0 | 0.0 | 0.00 | 0.39 | 0.39 | 98 | 1006.8 |
| 20260505101618 | 60 | 224 | 0.0 | 0.0 | 0.00 | 0.39 | 0.39 | 98 | 1006.9 |
| 20260505101114 | 60 | 224 | 0.0 | 0.0 | 0.05 | 0.39 | 0.39 | 98 | 1006.8 |
| 20260505100610 | 60 | 178 | 0.0 | 0.0 | 0.05 | 0.39 | 0.39 | 98 | 1006.7 |
| 20260505100107 | 60 | 176 | 0.0 | 0.0 | 0.00 | 0.38 | 0.38 | 98 | 1006.7 |
| 20260505095603 | 60 | 174 | 0.0 | 0.0 | 0.00 | 0.38 | 0.38 | 98 | 1006.6 |
| 20260505095100 | 60 | 204 | 0.0 | 0.0 | 0.00 | 0.38 | 0.38 | 98 | 1006.9 |
| 20260505094557 | 60 | 237 | 0.0 | 0.0 | 0.07 | 0.38 | 0.38 | 98 | 1006.3 |
| 20260505094053 | 60 | 174 | 1.7 | 1.7 | 0.07 | 0.38 | 0.38 | 98 | 1006.2 |
| 20260505093549 | 60 | 182 | 1.7 | 2.6 | 0.00 | 0.37 | 0.37 | 98 | 1006.2 |
| 20260505093047 | 60 | 130 | 1.7 | 2.6 | 0.00 | 0.37 | 0.37 | 98 | 1006.3 |
| 20260505092544 | 60 | 145 | 2.6 | 3.5 | 0.07 | 0.37 | 0.37 | 98 | 1006.9 |
| 20260505092043 | 60 | 172 | 0.0 | 0.0 | 0.12 | 0.37 | 0.37 | 98 | 1007.1 |
| 20260505091539 | 60 | 172 | 0.0 | 1.7 | 0.12 | 0.36 | 0.36 | 98 | 1007.8 |
| 20260505091037 | 60 | 173 | 0.0 | 0.0 | 0.07 | 0.35 | 0.35 | 98 | 1008.0 |
| 20260505090535 | 60 | 188 | 0.0 | 0.0 | 0.05 | 0.34 | 0.34 | 98 | 1007.9 |
| 20260505090033 | 60 | 230 | 0.0 | 0.0 | 0.12 | 0.34 | 0.34 | 98 | 1008.1 |
| 20260505085530 | 60 | 230 | 0.0 | 0.0 | 0.07 | 0.33 | 0.33 | 97 | 1007.9 |
| 20260505085028 | 60 | 230 | 0.0 | 0.0 | 0.05 | 0.32 | 0.32 | 97 | 1007.8 |
| 20260505084526 | 60 | 151 | 0.0 | 0.0 | 0.12 | 0.32 | 0.32 | 97 | 1007.3 |
| 20260505084024 | 60 | 151 | 0.0 | 0.0 | 0.24 | 0.31 | 0.31 | 97 | 1007.5 |
| 20260505083521 | 60 | 157 | 0.0 | 0.0 | 0.24 | 0.29 | 0.29 | 97 | 1007.8 |
| 20260505083017 | 60 | 157 | 0.0 | 0.0 | 0.26 | 0.27 | 0.27 | 97 | 1008.0 |
| 20260505082513 | 60 | 157 | 0.0 | 0.0 | 0.31 | 0.25 | 0.25 | 97 | 1008.2 |
| 20260505082010 | 60 | 161 | 0.0 | 0.0 | 0.24 | 0.23 | 0.23 | 97 | 1008.1 |
| 20260505081506 | 60 | 161 | 0.0 | 0.0 | 0.19 | 0.20 | 0.20 | 96 | 1008.3 |
| 20260505081003 | 60 | 161 | 0.0 | 0.0 | 0.24 | 0.19 | 0.19 | 96 | 1008.5 |
| 20260505080500 | 60 | 161 | 0.0 | 0.0 | 0.24 | 0.17 | 0.17 | 96 | 1008.4 |
| 20260505075955 | 60 | 161 | 0.0 | 0.0 | 0.19 | 0.14 | 0.14 | 96 | 1008.5 |
| 20260505075452 | 60 | 161 | 0.0 | 0.0 | 0.24 | 0.13 | 0.13 | 95 | 1008.7 |
| 20260505074949 | 60 | 161 | 0.0 | 0.0 | 0.19 | 0.11 | 0.11 | 95 | 1008.6 |
| 20260505074447 | 61 | 161 | 0.0 | 0.0 | 0.12 | 0.09 | 0.09 | 94 | 1008.3 |
| 20260505073944 | 61 | 161 | 0.0 | 0.0 | 0.12 | 0.08 | 0.08 | 93 | 1008.1 |
| 20260505073441 | 61 | 175 | 0.0 | 0.0 | 0.24 | 0.07 | 0.07 | 91 | 1008.4 |
| 20260505072938 | 62 | 177 | 0.0 | 0.0 | 0.24 | 0.05 | 0.05 | 89 | 1008.3 |
| 20260505072434 | 63 | 176 | 0.0 | 0.0 | 0.12 | 0.02 | 0.02 | 86 | 1008.2 |
| 20260505071931 | 63 | 168 | 0.0 | 0.0 | 0.07 | 0.01 | 0.01 | 83 | 1008.0 |
| 20260505071427 | 64 | 172 | 0.0 | 0.0 | 0.00 | 0.00 | 0.00 | 79 | 1007.8 |
| 20260505070925 | 65 | 200 | 0.0 | 0.9 | 0.00 | 0.00 | 0.00 | 76 | 1007.5 |
| 20260505070421 | 65 | 182 | 1.7 | 5.2 | 0.00 | 0.00 | 0.00 | 74 | 1007.9 |
| 20260505065917 | 66 | 228 | 0.0 | 0.0 | 0.00 | 0.00 | 0.00 | 72 | 1007.7 |
| 20260505065414 | 66 | 167 | 0.0 | 0.0 | 0.00 | 0.00 | 0.00 | 72 | 1007.6 |
| 20260505064910 | 66 | 175 | 0.0 | 0.9 | 0.00 | 0.00 | 0.00 | 71 | 1007.5 |
| 20260505064408 | 66 | 161 | 0.9 | 0.9 | 0.00 | 0.00 | 0.00 | 71 | 1007.3 |
| 20260505063906 | 66 | 184 | 0.9 | 0.9 | 0.00 | 0.00 | 0.00 | 71 | 1007.2 |
| 20260505063402 | 66 | 154 | 0.0 | 0.0 | 0.00 | 0.00 | 0.00 | 70 | 1007.5 |
| 20260505062859 | 66 | 158 | 0.0 | 0.9 | 0.00 | 0.00 | 0.00 | 70 | 1007.6 |
| 20260505062356 | 66 | 168 | 1.7 | 2.6 | 0.00 | 0.00 | 0.00 | 71 | 1007.5 |
| 20260505061852 | 66 | 157 | 0.0 | 0.0 | 0.00 | 0.00 | 0.00 | 71 | 1007.7 |
| 20260505061351 | 66 | 167 | 1.7 | 1.7 | 0.00 | 0.00 | 0.00 | 70 | 1007.9 |
| 20260505060848 | 66 | 168 | 0.9 | 2.6 | 0.00 | 0.00 | 0.00 | 70 | 1007.8 |
| 20260505060345 | 66 | 170 | 1.7 | 2.6 | 0.00 | 0.00 | 0.00 | 70 | 1007.6 |
| 20260505055841 | 66 | 173 | 1.7 | 2.6 | 0.00 | 0.00 | 0.00 | 70 | 1007.9 |
| 20260505055337 | 66 | 166 | 1.7 | 1.7 | 0.00 | 0.00 | 0.00 | 71 | 1008.0 |
| 20260505054834 | 66 | 171 | 0.9 | 2.6 | 0.00 | 0.00 | 0.00 | 70 | 1007.8 |
| 20260505054331 | 66 | 153 | 1.7 | 2.6 | 0.00 | 0.00 | 0.00 | 70 | 1007.8 |
| 20260505053830 | 66 | 179 | 0.9 | 1.7 | 0.00 | 0.00 | 0.00 | 70 | 1007.9 |
| 20260505053326 | 66 | 167 | 0.9 | 2.6 | 0.00 | 0.00 | 0.00 | 70 | 1007.9 |
| 20260505052823 | 66 | 160 | 1.7 | 1.7 | 0.00 | 0.00 | 0.00 | 70 | 1007.6 |
| 20260505052320 | 66 | 178 | 0.9 | 1.7 | 0.00 | 0.00 | 0.00 | 70 | 1007.6 |
| 20260505051817 | 66 | 180 | 0.0 | 0.0 | 0.00 | 0.00 | 0.00 | 70 | 1007.6 |
| 20260505051314 | 66 | 174 | 0.9 | 1.7 | 0.00 | 0.00 | 0.00 | 70 | 1007.8 |
| 20260505050812 | 66 | 145 | 1.7 | 1.7 | 0.00 | 0.00 | 0.00 | 70 | 1007.8 |
| 20260505050311 | 66 | 173 | 0.9 | 1.7 | 0.00 | 0.00 | 0.00 | 70 | 1007.9 |
| 20260505041740 | 66 | 167 | 0.0 | 0.0 | 0.00 | 0.00 | 0.00 | 71 | 1008.2 |
| 20260505041237 | 66 | 167 | 0.0 | 0.0 | 0.00 | 0.00 | 0.00 | 70 | 1008.4 |
| 20260505040735 | 66 | 167 | 0.0 | 0.0 | 0.00 | 0.00 | 0.00 | 70 | 1008.5 |
| 20260505040232 | 66 | 167 | 0.0 | 0.0 | 0.00 | 0.00 | 0.00 | 69 | 1008.4 |
| 20260505035729 | 67 | 167 | 0.0 | 1.7 | 0.00 | 0.00 | 0.00 | 68 | 1008.5 |
| 20260505035225 | 67 | 164 | 0.0 | 0.9 | 0.00 | 0.00 | 0.00 | 68 | 1008.5 |
| 20260505034722 | 67 | 165 | 0.0 | 0.0 | 0.00 | 0.00 | 0.00 | 68 | 1008.6 |
| 20260505034218 | 67 | 165 | 0.0 | 0.0 | 0.00 | 0.00 | 0.00 | 67 | 1008.7 |
| 20260505033715 | 67 | 165 | 0.0 | 0.0 | 0.00 | 0.00 | 0.00 | 68 | 1008.6 |
| 20260505033213 | 67 | 164 | 0.0 | 0.0 | 0.00 | 0.00 | 0.00 | 69 | 1008.6 |
| 20260505032711 | 67 | 164 | 0.0 | 0.9 | 0.00 | 0.00 | 0.00 | 68 | 1008.7 |
| 20260505032206 | 67 | 164 | 0.0 | 0.0 | 0.00 | 0.00 | 0.00 | 68 | 1008.7 |
| 20260505031704 | 67 | 164 | 0.0 | 0.9 | 0.00 | 0.00 | 0.00 | 68 | 1008.6 |
| 20260505031201 | 67 | 164 | 0.0 | 0.0 | 0.00 | 0.00 | 0.00 | 68 | 1008.6 |
| 20260505030657 | 68 | 164 | 0.0 | 0.0 | 0.00 | 0.00 | 0.00 | 67 | 1008.7 |
| 20260505030153 | 68 | 164 | 0.0 | 0.0 | 0.00 | 0.00 | 0.00 | 66 | 1008.6 |
| 20260505025649 | 68 | 164 | 0.0 | 0.0 | 0.00 | 0.00 | 0.00 | 66 | 1008.7 |
| 20260505025148 | 69 | 164 | 0.0 | 0.0 | 0.00 | 0.00 | 0.00 | 65 | 1008.7 |
| 20260505024645 | 69 | 164 | 0.0 | 0.0 | 0.00 | 0.00 | 0.00 | 64 | 1008.6 |
| 20260505024142 | 68 | 164 | 0.0 | 0.0 | 0.00 | 0.00 | 0.00 | 65 | 1008.6 |
| 20260505023640 | 68 | 164 | 0.0 | 0.0 | 0.00 | 0.00 | 0.00 | 66 | 1008.5 |
| 20260505023137 | 69 | 164 | 0.0 | 0.0 | 0.00 | 0.00 | 0.00 | 65 | 1008.6 |
| 20260505022634 | 69 | 164 | 0.0 | 0.0 | 0.00 | 0.00 | 0.00 | 64 | 1008.7 |
| 20260505022131 | 69 | 164 | 0.0 | 0.0 | 0.00 | 0.00 | 0.00 | 63 | 1008.2 |
| 20260505021628 | 70 | 164 | 0.0 | 0.0 | 0.00 | 0.00 | 0.00 | 62 | 1008.1 |
| 20260505021124 | 70 | 164 | 0.0 | 0.9 | 0.00 | 0.00 | 0.00 | 61 | 1008.1 |
| 20260505020614 | 71 | 167 | 0.9 | 0.9 | 0.00 | 0.00 | 0.00 | 60 | 1007.8 |
| 20260505020111 | 71 | 161 | 0.0 | 0.0 | 0.00 | 0.00 | 0.00 | 60 | 1008.0 |
| 20260505015608 | 71 | 160 | 1.7 | 1.7 | 0.00 | 0.00 | 0.00 | 60 | 1007.8 |
| 20260505015105 | 71 | 169 | 0.9 | 0.9 | 0.00 | 0.00 | 0.00 | 60 | 1007.8 |
| 20260505014601 | 71 | 170 | 1.7 | 2.6 | 0.00 | 0.00 | 0.00 | 59 | 1007.7 |
| 20260505014058 | 71 | 150 | 1.7 | 7.0 | 0.00 | 0.00 | 0.00 | 59 | 1007.8 |
| 20260505013555 | 72 | 167 | 2.6 | 3.5 | 0.00 | 0.00 | 0.00 | 58 | 1007.5 |
| 20260505013053 | 72 | 169 | 0.0 | 1.7 | 0.00 | 0.00 | 0.00 | 59 | 1007.3 |
| 20260505012551 | 72 | 155 | 0.9 | 2.6 | 0.00 | 0.00 | 0.00 | 59 | 1007.4 |
| 20260505012048 | 72 | 160 | 1.7 | 1.7 | 0.00 | 0.00 | 0.00 | 59 | 1007.4 |
| 20260505011543 | 72 | 160 | 0.9 | 1.7 | 0.00 | 0.00 | 0.00 | 59 | 1007.3 |
| 20260505011041 | 72 | 165 | 1.7 | 2.6 | 0.00 | 0.00 | 0.00 | 58 | 1007.1 |
| 20260505010536 | 72 | 173 | 0.9 | 1.7 | 0.00 | 0.00 | 0.00 | 58 | 1007.1 |
| 20260505010032 | 73 | 189 | 0.0 | 0.0 | 0.00 | 0.00 | 0.00 | 58 | 1007.0 |
| 20260505005529 | 73 | 204 | 0.0 | 2.6 | 0.00 | 0.00 | 0.00 | 57 | 1007.1 |
| 20260505005027 | 73 | 189 | 1.7 | 5.2 | 0.00 | 0.00 | 0.00 | 57 | 1006.9 |
| 20260505004523 | 73 | 195 | 0.9 | 1.7 | 0.00 | 0.00 | 0.00 | 57 | 1006.8 |
| 20260505004020 | 73 | 174 | 0.9 | 2.6 | 0.00 | 0.00 | 0.00 | 57 | 1006.7 |
| 20260505003517 | 73 | 168 | 1.7 | 2.6 | 0.00 | 0.00 | 0.00 | 57 | 1006.5 |
| 20260505003014 | 73 | 155 | 1.7 | 2.6 | 0.00 | 0.00 | 0.00 | 56 | 1006.5 |
| 20260505002509 | 74 | 168 | 1.7 | 2.6 | 0.00 | 0.00 | 0.00 | 56 | 1006.7 |
| 20260505002008 | 74 | 154 | 0.9 | 1.7 | 0.00 | 0.00 | 0.00 | 56 | 1006.5 |
| 20260505001505 | 74 | 168 | 0.9 | 1.7 | 0.00 | 0.00 | 0.00 | 55 | 1006.6 |
| 20260505001002 | 74 | 163 | 1.7 | 2.6 | 0.00 | 0.00 | 0.00 | 54 | 1006.5 |
| 20260505000500 | 74 | 184 | 0.0 | 1.7 | 0.00 | 0.00 | 0.00 | 54 | 1006.7 |
| 20260504235956 | 75 | 177 | 1.7 | 1.7 | 0.00 | 0.00 | 0.00 | 52 | 1006.7 |
| 20260504235454 | 75 | 172 | 0.9 | 3.5 | 0.00 | 0.00 | 0.00 | 52 | 1006.5 |
| 20260504234950 | 75 | 167 | 1.7 | 2.6 | 0.00 | 0.00 | 0.00 | 51 | 1006.5 |
| 20260504234447 | 75 | 130 | 0.9 | 3.5 | 0.00 | 0.00 | 0.00 | 51 | 1006.5 |
| 20260504233943 | 76 | 198 | 0.9 | 3.5 | 0.00 | 0.00 | 0.00 | 51 | 1006.5 |
| 20260504233439 | 76 | 202 | 3.5 | 3.5 | 0.00 | 0.00 | 0.00 | 49 | 1006.5 |
| 20260504232937 | 76 | 167 | 0.9 | 5.2 | 0.00 | 0.00 | 0.00 | 49 | 1006.4 |
| 20260504232434 | 77 | 159 | 2.6 | 7.8 | 0.00 | 0.00 | 0.00 | 50 | 1006.6 |
| 20260504231931 | 77 | 190 | 3.5 | 6.1 | 0.00 | 0.00 | 0.00 | 48 | 1006.6 |
| 20260504231427 | 77 | 153 | 3.5 | 5.2 | 0.00 | 0.00 | 0.00 | 48 | 1006.5 |
| 20260504230923 | 78 | 205 | 1.7 | 6.1 | 0.00 | 0.00 | 0.00 | 48 | 1006.7 |
| 20260504230420 | 78 | 172 | 3.5 | 7.0 | 0.00 | 0.00 | 0.00 | 47 | 1006.8 |
| 20260504225919 | 78 | 187 | 1.7 | 5.2 | 0.00 | 0.00 | 0.00 | 46 | 1006.7 |
| 20260504225416 | 79 | 177 | 2.6 | 2.6 | 0.00 | 0.00 | 0.00 | 45 | 1006.6 |
| 20260504224913 | 79 | 178 | 2.6 | 7.0 | 0.00 | 0.00 | 0.00 | 45 | 1006.8 |
| 20260504224409 | 79 | 171 | 2.6 | 3.5 | 0.00 | 0.00 | 0.00 | 45 | 1006.7 |
| 20260504223907 | 79 | 188 | 1.7 | 5.2 | 0.00 | 0.00 | 0.00 | 45 | 1006.9 |
| 20260504223402 | 79 | 163 | 2.6 | 3.5 | 0.00 | 0.00 | 0.00 | 45 | 1006.9 |
| 20260504222859 | 79 | 134 | 5.2 | 7.0 | 0.00 | 0.00 | 0.00 | 45 | 1006.9 |
| 20260504222355 | 79 | 117 | 0.9 | 6.1 | 0.00 | 0.00 | 0.00 | 47 | 1006.9 |
| 20260504221854 | 79 | 148 | 0.9 | 2.6 | 0.00 | 0.00 | 0.00 | 45 | 1006.7 |
| 20260504221350 | 79 | 195 | 0.9 | 7.8 | 0.00 | 0.00 | 0.00 | 45 | 1006.9 |
| 20260504220847 | 79 | 167 | 3.5 | 7.0 | 0.00 | 0.00 | 0.00 | 44 | 1006.6 |
| 20260504220344 | 79 | 172 | 3.5 | 9.6 | 0.00 | 0.00 | 0.00 | 44 | 1006.7 |
| 20260504215841 | 79 | 162 | 3.5 | 7.8 | 0.00 | 0.00 | 0.00 | 44 | 1006.8 |
| 20260504215337 | 79 | 179 | 3.5 | 3.5 | 0.00 | 0.00 | 0.00 | 44 | 1006.7 |
| 20260504214833 | 79 | 169 | 5.2 | 9.6 | 0.00 | 0.00 | 0.00 | 44 | 1006.8 |